Weather Roundup
Issued by NWS Springfield, MO

Home | Current Version | Previous Version | Text Only | Print | Product List | Glossary On
Versions: 1 2 3 4 5 6 7 8 9 10 11 12 13 14 15 16 17 18 19 20 21 22 23 24 25 26 27 28 29 30 31 32 33 34 35 36 37 38 39 40 41 42 43 44 45 46 47 48 49 50
000
NZUS99 KSGF 260907
HRRSGF

HOURLY WEATHER
NATIONAL WEATHER SERVICE SPRINGFIELD MO
400 AM CDT FRI MAY 26 2017

......SGF CWA......

CITY           SKY/WX    TMP DP  RH WIND       PRES   REMARKS
SPRINGFIELD    MOCLDY    68  58  70 SE16      29.70F
JOPLIN         CLOUDY    68  61  78 NE9       29.67R
WEST PLAINS    PTCLDY    62  57  83 VRB5      29.81R
ROLLA          PTCLDY    61  56  83 SE9       29.75F
OSAGE BEACH    PTCLDY    63  56  78 SE7       29.74F
BRANSON        CLOUDY    63  57  82 E10       29.72S

......SURROUNDING SGF CWA......

CITY           SKY/WX    TMP DP  RH WIND       PRES   REMARKS
CHANUTE        PTCLDY    66  58  75 E9        29.62F
PARSONS        MOCLDY    67  60  78 CALM      29.63F
COFFEYVILLE    CLOUDY    64  64 100 VRB3      29.63R
EMPORIA        CLOUDY    65  61  87 SE15      29.57F
GROVE OK       PTCLDY    72  63  73 S9        29.61F
ROGERS AR      PTCLDY    66  60  81 SE7       29.66F
SILOAM SPRINGS MOCLDY    72  57  60 S13G21    29.63S
HARRISON AR    CLOUDY    63  59  87 SE8       29.71F
NEAR YELLVILLE MOCLDY    63  54  72 E5        29.71F

......KANSAS AND MISSOURI......

CITY           SKY/WX    TMP DP  RH WIND       PRES   REMARKS
KANSAS CTY INT LGT RAIN  65  60  84 SE22G29   29.55F
DOWNTOWN KC    LGT RAIN  66  60  81 SE23      29.56F
COLUMBIA       PTCLDY    61  55  81 SE9       29.73S
SEDALIA        PTCLDY    63  59  87 S7        29.72R
ST JOSEPH      CLOUDY    67  59  75 VRB3      29.52F
ST LOUIS       PTCLDY    63  53  70 E6        29.78S
SPIRIT OF STL  PTCLDY    64  55  72 CALM      29.76S
KIRKSVILLE     PTCLDY    59  54  83 S5        29.72S
WICHITA        PTCLDY    67  61  81 NE9       29.57S
TOPEKA         CLOUDY    65  62  90 S9        29.57R
OLATHE         CLOUDY    63  60  90 S20       29.63F THUNDER

......TENNESSEE......

CITY           SKY/WX    TMP DP  RH WIND       PRES   REMARKS
MEMPHIS        PTCLDY    65  57  75 S12       29.85S
NASHVILLE      CLEAR     54  52  93 S6        29.94R

......ARKANSAS.......

CITY           SKY/WX    TMP DP  RH WIND       PRES   REMARKS
FAYETTEVILLE   MOCLDY    71  61  70 S9        29.66S
FT SMITH       MOCLDY    68  60  75 NE7       29.67S
LITTLE ROCK    PTCLDY    67  64  90 S9        29.79R

......OKLAHOMA.......

CITY           SKY/WX    TMP DP  RH WIND       PRES   REMARKS
TULSA          MOCLDY    73  62  68 S13       29.54S
PONCA CITY     CLEAR     68  60  75 SE13      29.53F
MCALESTER      CLOUDY    75  60  59 S12G29    29.63R
OKLAHOMA CITY  PTCLDY    74  62  66 S15       29.55R

......IOWA............

CITY           SKY/WX    TMP DP  RH WIND       PRES   REMARKS
DES MOINES     CLOUDY    62  53  72 E7        29.69S
QUAD CITIES    PTCLDY    58  53  84 E5        29.78R

......ILLINOIS........

CITY           SKY/WX    TMP DP  RH WIND       PRES   REMARKS
QUINCY         CLOUDY    61  53  75 SE8       29.74F
CHICAGO        CLOUDY    53  49  86 CALM      29.81R




USA.gov is the U.S. government's official web portal to all federal, state and local government web resources and services.